This is the latest recevied weather packets stored in our database for station/object N8VDS-10. If no packets are shown the sender has not sent any weather packets the latest 10 day(s).
| Time | Temp. | Humidity | Pressure | Rain* | Wind** | Luminosity | Snow |
|---|---|---|---|---|---|---|---|
| 1777989014 | 9.44° C | 66% | 1009.9 hPa | 0 mm | - | 111 W/m² | - |
| 1777988710 | 9.44° C | 68% | 1009.9 hPa | 0 mm | - | 91 W/m² | - |
| 1777988408 | 8.89° C | 68% | 1009.1 hPa | 0 mm | - | 48 W/m² | - |
| 1777988104 | 8.89° C | 67% | 1008.9 hPa | 0 mm | - | 44 W/m² | - |
| 1777987800 | 9.44° C | 65% | 1008.6 hPa | 0 mm | - | 52 W/m² | - |
| 1777987497 | 9.44° C | 66% | 1008.8 hPa | 0 mm | - | 47 W/m² | - |
| 1777987195 | 9.44° C | 64% | 1009.4 hPa | 0 mm | - | 14 W/m² | - |
| 1777986891 | 9.44° C | 64% | 1008.8 hPa | 0 mm | - | 15 W/m² | - |
| 1777986589 | 9.44° C | 66% | 1008.2 hPa | 0 mm | - | 39 W/m² | - |
| 1777986287 | 9.44° C | 66% | 1008 hPa | 0 mm | - | 52 W/m² | - |
| 1777985984 | 9.44° C | 65% | 1008.1 hPa | 0 mm | - | 46 W/m² | - |
| 1777985681 | 9.44° C | 64% | 1008 hPa | 0 mm | - | 56 W/m² | - |
| 1777985378 | 9.44° C | 64% | 1007.8 hPa | 0 mm | - | 46 W/m² | - |
| 1777985075 | 9.44° C | 63% | 1007.9 hPa | 0 mm | - | 42 W/m² | - |
| 1777984771 | 10° C | 63% | 1008 hPa | 0 mm | - | 30 W/m² | - |
| 1777984468 | 10° C | 63% | 1007.7 hPa | 0 mm | - | 59 W/m² | - |
| 1777984163 | 10° C | 61% | 1007.7 hPa | 0 mm | - | 39 W/m² | - |
| 1777983861 | 10° C | 61% | 1007.8 hPa | 0 mm | - | 57 W/m² | - |
| 1777983558 | 10° C | 61% | 1007.7 hPa | 0 mm | - | 83 W/m² | - |
| 1777983255 | 10° C | 62% | 1007.8 hPa | 0 mm | - | 82 W/m² | - |
| 1777982950 | 9.44° C | 62% | 1007.5 hPa | 0 mm | - | 69 W/m² | - |
| 1777982647 | 9.44° C | 64% | 1007.8 hPa | 0 mm | - | 102 W/m² | - |
| 1777982346 | 9.44° C | 65% | 1007.5 hPa | 0 mm | - | 85 W/m² | - |
| 1777982043 | 9.44° C | 64% | 1007.5 hPa | 0 mm | - | 51 W/m² | - |
| 1777981741 | 10° C | 68% | 1007.5 hPa | 0 mm | - | 83 W/m² | - |
* Rain latest hour (hover to see other rain measurements)
** Current wind speed in m/s (hover to see current wind gust speed)